• In Uzbekistan
  • List of Countries
  • For 7 days
  • Water Temperature
  • Weather Map
  • Weather Widgets
  • user-avatar
    Login

    Hourly Weather Townsville

    Today, 30 March, Monday

    Time Temperature Precipitation Wind Pressure Humidity
    00:00 +25°C° 0 mm 4 mps 753 mmHg 89%
    01:00 +23°C° 0 mm 4 mps 753 mmHg 90%
    02:00 +23°C° 0 mm 4 mps 752 mmHg 91%
    03:00 +23°C° 0 mm 4 mps 752 mmHg 92%
    04:00 +23°C° 0 mm 4 mps 752 mmHg 93%
    05:00 +23°C° 0 mm 4 mps 752 mmHg 93%
    06:00 +24°C° 0 mm 3 mps 752 mmHg 92%
    07:00 +24°C° 0 mm 3 mps 753 mmHg 92%
    08:00 +26°C° 0 mm 3 mps 753 mmHg 84%
    09:00 +28°C° 0 mm 3 mps 753 mmHg 76%
    10:00 +29°C° 0 mm 4 mps 753 mmHg 68%
    11:00 +30°C° 0 mm 4 mps 753 mmHg 66%
    12:00 +32°C° 0 mm 4 mps 752 mmHg 64%
    13:00 +32°C° 0 mm 5 mps 752 mmHg 62%
    14:00 +32°C° 0.2 mm 5 mps 752 mmHg 64%
    15:00 +30°C° 0.2 mm 5 mps 751 mmHg 67%
    16:00 +30°C° 0.2 mm 5 mps 751 mmHg 70%
    17:00 +28°C° 0.3 mm 5 mps 751 mmHg 75%
    18:00 +27°C° 0.3 mm 5 mps 752 mmHg 80%
    19:00 +26°C° 0.3 mm 4 mps 752 mmHg 86%
    20:00 +26°C° 0.2 mm 4 mps 753 mmHg 87%
    21:00 +25°C° 0.2 mm 4 mps 753 mmHg 88%
    22:00 +25°C° 0.2 mm 4 mps 754 mmHg 89%
    23:00 +25°C° 0 mm 4 mps 753 mmHg 90%

    Tomorrow, 31 March, Tuesday

    Time Temperature Precipitation Wind Pressure Humidity
    00:00 +25°C° 0 mm 4 mps 753 mmHg 90%
    01:00 +25°C° 0 mm 3 mps 752 mmHg 91%
    02:00 +24°C° 0.1 mm 3 mps 752 mmHg 91%
    03:00 +24°C° 0.1 mm 3 mps 752 mmHg 92%
    04:00 +24°C° 0.1 mm 3 mps 752 mmHg 93%
    05:00 +24°C° 0 mm 3 mps 752 mmHg 93%
    06:00 +24°C° 0 mm 3 mps 753 mmHg 93%
    07:00 +24°C° 0 mm 3 mps 753 mmHg 93%
    08:00 +25°C° 0 mm 3 mps 753 mmHg 85%
    09:00 +27°C° 0 mm 3 mps 753 mmHg 77%
    10:00 +29°C° 0 mm 4 mps 754 mmHg 68%
    11:00 +30°C° 0 mm 4 mps 753 mmHg 66%
    12:00 +30°C° 0 mm 5 mps 752 mmHg 63%
    13:00 +32°C° 0 mm 6 mps 752 mmHg 60%
    14:00 +32°C° 0 mm 6 mps 752 mmHg 61%
    15:00 +30°C° 0 mm 5 mps 751 mmHg 63%
    16:00 +30°C° 0 mm 5 mps 751 mmHg 64%
    17:00 +29°C° 0 mm 5 mps 751 mmHg 69%
    18:00 +27°C° 0 mm 5 mps 752 mmHg 74%
    19:00 +26°C° 0 mm 4 mps 752 mmHg 79%
    20:00 +26°C° 0 mm 4 mps 753 mmHg 81%
    21:00 +25°C° 0 mm 4 mps 753 mmHg 82%
    22:00 +25°C° 0 mm 4 mps 754 mmHg 84%
    23:00 +25°C° 0 mm 4 mps 753 mmHg 85%

    Day after tomorrow, 1 April, Wednesday

    Time Temperature Precipitation Wind Pressure Humidity
    00:00 +24°C° 0 mm 3 mps 753 mmHg 87%
    01:00 +24°C° 0 mm 3 mps 753 mmHg 88%
    02:00 +23°C° 0 mm 4 mps 752 mmHg 90%
    03:00 +23°C° 0 mm 4 mps 752 mmHg 91%
    04:00 +22°C° 0 mm 4 mps 752 mmHg 92%
    05:00 +22°C° 0.1 mm 4 mps 752 mmHg 92%
    06:00 +22°C° 0.1 mm 3 mps 753 mmHg 92%
    07:00 +24°C° 0.1 mm 3 mps 753 mmHg 91%
    08:00 +25°C° 0.1 mm 4 mps 753 mmHg 87%
    09:00 +26°C° 0.1 mm 4 mps 753 mmHg 82%
    10:00 +27°C° 0.1 mm 4 mps 754 mmHg 78%
    11:00 +28°C° 0 mm 4 mps 753 mmHg 71%
    12:00 +29°C° 0 mm 5 mps 753 mmHg 64%
    13:00 +32°C° 0 mm 5 mps 752 mmHg 57%
    14:00 +30°C° 0 mm 5 mps 752 mmHg 59%
    15:00 +30°C° 0 mm 5 mps 752 mmHg 60%
    16:00 +30°C° 0 mm 5 mps 751 mmHg 62%
    17:00 +28°C° 0 mm 5 mps 752 mmHg 67%
    18:00 +27°C° 0 mm 5 mps 752 mmHg 73%
    19:00 +26°C° 0 mm 5 mps 752 mmHg 79%
    20:00 +25°C° 0 mm 4 mps 753 mmHg 81%
    21:00 +25°C° 0 mm 4 mps 753 mmHg 83%
    22:00 +23°C° 0 mm 4 mps 753 mmHg 85%
    23:00 +24°C° 0.2 mm 3 mps 753 mmHg 85%

    2 April, Thursday

    Time Temperature Precipitation Wind Pressure Humidity
    00:00 +24°C° 0.2 mm 3 mps 753 mmHg 86%
    01:00 +24°C° 0.2 mm 3 mps 753 mmHg 86%
    02:00 +22°C° 0.1 mm 3 mps 753 mmHg 88%
    03:00 +22°C° 0.1 mm 3 mps 752 mmHg 89%
    04:00 +22°C° 0.1 mm 3 mps 752 mmHg 91%
    05:00 +22°C° 0 mm 3 mps 752 mmHg 91%
    06:00 +22°C° 0 mm 3 mps 753 mmHg 90%
    07:00 +22°C° 0 mm 3 mps 753 mmHg 90%
    08:00 +25°C° 0 mm 3 mps 753 mmHg 82%
    09:00 +27°C° 0 mm 3 mps 753 mmHg 74%
    10:00 +29°C° 0 mm 3 mps 753 mmHg 66%
    11:00 +30°C° 0 mm 4 mps 753 mmHg 62%
    12:00 +30°C° 0 mm 4 mps 752 mmHg 57%
    13:00 +32°C° 0 mm 4 mps 751 mmHg 52%
    14:00 +32°C° 0 mm 5 mps 751 mmHg 53%
    15:00 +30°C° 0 mm 5 mps 751 mmHg 55%
    16:00 +30°C° 0 mm 5 mps 750 mmHg 56%
    17:00 +28°C° 0 mm 4 mps 751 mmHg 63%
    18:00 +27°C° 0 mm 3 mps 751 mmHg 71%
    19:00 +25°C° 0 mm 3 mps 751 mmHg 79%
    20:00 +25°C° 0 mm 3 mps 752 mmHg 81%
    21:00 +25°C° 0 mm 3 mps 752 mmHg 84%
    22:00 +24°C° 0 mm 3 mps 752 mmHg 87%
    23:00 +24°C° 0.1 mm 3 mps 752 mmHg 87%

    3 April, Friday

    Time Temperature Precipitation Wind Pressure Humidity
    00:00 +24°C° 0.1 mm 3 mps 752 mmHg 88%
    01:00 +24°C° 0.1 mm 3 mps 751 mmHg 89%
    02:00 +22°C° 0.2 mm 3 mps 751 mmHg 90%
    03:00 +22°C° 0.2 mm 3 mps 751 mmHg 90%
    04:00 +22°C° 0.2 mm 3 mps 751 mmHg 91%
    05:00 +22°C° 0 mm 3 mps 751 mmHg 90%
    06:00 +23°C° 0 mm 2 mps 751 mmHg 90%
    07:00 +23°C° 0 mm 2 mps 752 mmHg 89%
    08:00 +25°C° 0 mm 2 mps 752 mmHg 81%
    09:00 +27°C° 0 mm 2 mps 752 mmHg 72%
    10:00 +29°C° 0 mm 2 mps 752 mmHg 64%
    11:00 +30°C° 0 mm 3 mps 751 mmHg 61%
    12:00 +31°C° 0 mm 3 mps 751 mmHg 58%
    13:00 +31°C° 0 mm 3 mps 750 mmHg 55%
    14:00 +31°C° 0 mm 3 mps 750 mmHg 58%
    15:00 +30°C° 0 mm 3 mps 750 mmHg 60%
    16:00 +30°C° 0 mm 4 mps 749 mmHg 62%
    17:00 +28°C° 0 mm 3 mps 750 mmHg 69%
    18:00 +27°C° 0 mm 3 mps 750 mmHg 75%
    19:00 +26°C° 0 mm 2 mps 750 mmHg 82%
    20:00 +25°C° 0 mm 2 mps 751 mmHg 83%
    21:00 +25°C° 0 mm 2 mps 751 mmHg 85%
    22:00 +25°C° 0 mm 2 mps 752 mmHg 87%
    23:00 +24°C° 0 mm 1 mps 751 mmHg 88%

    4 April, Saturday

    Time Temperature Precipitation Wind Pressure Humidity
    00:00 +24°C° 0 mm 1 mps 751 mmHg 89%
    01:00 +24°C° 0 mm 1 mps 751 mmHg 90%
    02:00 +24°C° 0.1 mm 1 mps 751 mmHg 91%
    03:00 +24°C° 0.1 mm 1 mps 751 mmHg 92%
    04:00 +23°C° 0.1 mm 1 mps 750 mmHg 93%
    05:00 +24°C° 0.1 mm 1 mps 751 mmHg 93%
    06:00 +24°C° 0.1 mm 1 mps 751 mmHg 92%
    07:00 +24°C° 0.1 mm 1 mps 752 mmHg 92%
    08:00 +26°C° 0.1 mm 1 mps 752 mmHg 84%
    09:00 +28°C° 0.1 mm 1 mps 752 mmHg 77%
    10:00 +30°C° 0.1 mm 1 mps 752 mmHg 69%
    11:00 +30°C° 0 mm 2 mps 752 mmHg 68%
    12:00 +30°C° 0 mm 2 mps 751 mmHg 66%
    13:00 +30°C° 0 mm 2 mps 750 mmHg 65%
    14:00 +30°C° 0 mm 2 mps 750 mmHg 65%
    15:00 +30°C° 0 mm 2 mps 750 mmHg 66%
    16:00 +30°C° 0 mm 2 mps 750 mmHg 66%
    17:00 +28°C° 0 mm 2 mps 750 mmHg 72%
    18:00 +27°C° 0 mm 2 mps 750 mmHg 78%
    19:00 +26°C° 0 mm 1 mps 751 mmHg 83%
    20:00 +25°C° 0 mm 1 mps 751 mmHg 85%
    21:00 +25°C° 0 mm 1 mps 752 mmHg 87%
    22:00 +25°C° 0 mm 1 mps 752 mmHg 88%
    23:00 +25°C° 0 mm 1 mps 752 mmHg 88%
    Show more